USY99 LFPG-EDFH

Flight info

Callsign USY99
Flight time 0h 37m
Altitude 19000
Route DIKO6G DIKOL J10 SUIPE M163 MMD Z110 BITBU Z555 ROPUV
Aircraft A343/H-SDE2E3FGHIJ4J5M1RWXY/LB1D1

Departure

Time 2026-05-08 22:39
Airport Charles de Gaulle International Airport (LFPG)

Arrival

Time 2026-05-08 23:16
Airport Frankfurt-Hahn Airport (EDFH)
Time Latitude Longitude Altitude Speed Heading
2026-05-08 22:17 49.01179 2.55400 359 ft 0 kts 175°
2026-05-08 22:27 49.01184 2.55400 362 ft 3 kts 175°
2026-05-08 22:27 49.01210 2.55397 359 ft 4 kts 176°
2026-05-08 22:27 49.01233 2.55396 359 ft 4 kts 194°
2026-05-08 22:27 49.01253 2.55414 360 ft 4 kts 244°
2026-05-08 22:28 49.01259 2.55453 360 ft 4 kts 268°
2026-05-08 22:28 49.01260 2.55486 359 ft 0 kts 266°
2026-05-08 22:28 49.01260 2.55487 359 ft 0 kts 266°
2026-05-08 22:32 49.01260 2.55486 359 ft 1 kts 266°
2026-05-08 22:32 49.01257 2.55411 360 ft 14 kts 266°
2026-05-08 22:32 49.01248 2.55243 360 ft 18 kts 265°
2026-05-08 22:33 49.01245 2.55048 364 ft 17 kts 285°
2026-05-08 22:33 49.01341 2.54938 366 ft 19 kts 346°
2026-05-08 22:33 49.01482 2.54899 366 ft 22 kts 353°
2026-05-08 22:33 49.01639 2.54877 359 ft 24 kts 356°
2026-05-08 22:34 49.01788 2.54864 360 ft 18 kts 354°
2026-05-08 22:34 49.01848 2.54765 362 ft 14 kts 259°
2026-05-08 22:34 49.01834 2.54595 360 ft 18 kts 266°
2026-05-08 22:34 49.01822 2.54350 362 ft 27 kts 266°
2026-05-08 22:35 49.01806 2.54053 363 ft 30 kts 265°
2026-05-08 22:35 49.01789 2.53734 365 ft 29 kts 265°
2026-05-08 22:35 49.01772 2.53415 363 ft 31 kts 265°
2026-05-08 22:35 49.01753 2.53077 364 ft 33 kts 265°
2026-05-08 22:36 49.01734 2.52721 362 ft 34 kts 265°
2026-05-08 22:36 49.01715 2.52390 368 ft 29 kts 264°
2026-05-08 22:36 49.01699 2.52081 362 ft 30 kts 266°
2026-05-08 22:36 49.01682 2.51750 363 ft 32 kts 265°
2026-05-08 22:37 49.01665 2.51427 359 ft 22 kts 266°
2026-05-08 22:37 49.01693 2.51287 362 ft 14 kts 334°
2026-05-08 22:37 49.01797 2.51265 359 ft 16 kts 355°
2026-05-08 22:37 49.01919 2.51252 362 ft 19 kts 359°
2026-05-08 22:38 49.02035 2.51339 368 ft 20 kts 46°
2026-05-08 22:38 49.02076 2.51574 365 ft 34 kts 85°
2026-05-08 22:38 49.02116 2.52289 363 ft 105 kts 85°
2026-05-08 22:38 49.02188 2.53726 404 ft 162 kts 83°
2026-05-08 22:39 49.02285 2.55499 1077 ft 173 kts 83°
2026-05-08 22:39 49.02403 2.57387 1924 ft 181 kts 85°
2026-05-08 22:39 49.02518 2.59339 2854 ft 189 kts 86°
2026-05-08 22:39 49.02594 2.61399 3701 ft 202 kts 87°
2026-05-08 22:40 49.02679 2.63615 4436 ft 224 kts 87°
2026-05-08 22:40 49.02785 2.66125 5247 ft 249 kts 86°
2026-05-08 22:40 49.02902 2.68861 6166 ft 268 kts 87°
2026-05-08 22:40 49.03014 2.71771 7222 ft 279 kts 88°
2026-05-08 22:41 49.03144 2.74749 8414 ft 285 kts 85°
2026-05-08 22:41 49.03364 2.77777 9661 ft 287 kts 84°
2026-05-08 22:41 49.03578 2.80818 10565 ft 302 kts 86°
2026-05-08 22:41 49.03766 2.84140 11133 ft 324 kts 84°
2026-05-08 22:42 49.04169 2.87605 11955 ft 335 kts 79°
2026-05-08 22:42 49.04660 2.91115 12905 ft 341 kts 78°
2026-05-08 22:42 49.05200 2.94674 13882 ft 347 kts 77°
2026-05-08 22:42 49.05773 2.98287 14741 ft 353 kts 76°
2026-05-08 22:43 49.06037 2.99931 15142 ft 356 kts 76°
2026-05-08 22:43 49.06623 3.03570 16036 ft 360 kts 76°
2026-05-08 22:43 49.07232 3.07318 16944 ft 365 kts 75°
2026-05-08 22:43 49.07888 3.11088 17879 ft 369 kts 75°
2026-05-08 22:44 49.08558 3.14891 18626 ft 373 kts 75°
2026-05-08 22:44 49.09223 3.18693 19276 ft 377 kts 75°
2026-05-08 22:44 49.09899 3.22587 20097 ft 381 kts 74°
2026-05-08 22:44 49.10572 3.26474 20726 ft 385 kts 74°
2026-05-08 22:45 49.11254 3.30433 21036 ft 386 kts 74°
2026-05-08 22:45 49.11701 3.33037 21081 ft 378 kts 74°
2026-05-08 22:45 49.12352 3.36843 21085 ft 370 kts 74°
2026-05-08 22:45 49.13027 3.40775 21090 ft 396 kts 74°
2026-05-08 22:46 49.13744 3.44959 21084 ft 413 kts 74°
2026-05-08 22:46 49.14467 3.49211 21082 ft 415 kts 74°
2026-05-08 22:46 49.15196 3.53514 21083 ft 416 kts 74°
2026-05-08 22:46 49.15919 3.57791 21087 ft 415 kts 74°
2026-05-08 22:47 49.16639 3.62054 21091 ft 414 kts 74°
2026-05-08 22:47 49.17357 3.66320 21084 ft 414 kts 74°
2026-05-08 22:47 49.18074 3.70588 21081 ft 414 kts 74°
2026-05-08 22:47 49.18781 3.74805 21086 ft 414 kts 74°
2026-05-08 22:48 49.19495 3.79077 21081 ft 414 kts 74°
2026-05-08 22:48 49.20207 3.83350 21080 ft 414 kts 74°
2026-05-08 22:48 49.20918 3.87626 21079 ft 414 kts 74°
2026-05-08 22:48 49.21628 3.91900 21078 ft 414 kts 74°
2026-05-08 22:49 49.22333 3.96166 21091 ft 414 kts 74°
2026-05-08 22:49 49.23736 4.04674 21096 ft 414 kts 74°
2026-05-08 22:49 49.24436 4.08940 21091 ft 412 kts 74°
2026-05-08 22:50 49.25131 4.13185 21091 ft 411 kts 75°
2026-05-08 22:50 49.25825 4.17430 21091 ft 410 kts 75°
2026-05-08 22:50 49.26515 4.21668 21091 ft 410 kts 75°
2026-05-08 22:50 49.27207 4.25925 21097 ft 410 kts 75°
2026-05-08 22:51 49.27886 4.30108 21094 ft 410 kts 75°
2026-05-08 22:51 49.28573 4.34353 21094 ft 410 kts 75°
2026-05-08 22:51 49.29257 4.38596 21094 ft 410 kts 75°
2026-05-08 22:51 49.29940 4.42839 21094 ft 410 kts 75°
2026-05-08 22:52 49.30622 4.47086 21092 ft 410 kts 75°
2026-05-08 22:52 49.31301 4.51327 21092 ft 410 kts 75°
2026-05-08 22:52 49.31983 4.55595 21091 ft 410 kts 75°
2026-05-08 22:52 49.32660 4.59844 21092 ft 410 kts 75°
2026-05-08 22:53 49.33336 4.64093 21091 ft 410 kts 75°
2026-05-08 22:53 49.34002 4.68296 21091 ft 410 kts 75°
2026-05-08 22:53 49.34675 4.72556 21097 ft 410 kts 75°
2026-05-08 22:53 49.35346 4.76809 21097 ft 410 kts 75°
2026-05-08 22:54 49.36017 4.81071 21097 ft 410 kts 75°
2026-05-08 22:54 49.36684 4.85320 21097 ft 410 kts 75°
2026-05-08 22:54 49.37352 4.89590 21097 ft 410 kts 75°
2026-05-08 22:54 49.38008 4.93794 21099 ft 410 kts 75°
2026-05-08 22:55 49.38672 4.98060 21097 ft 410 kts 75°
2026-05-08 22:55 49.39334 5.02317 21097 ft 410 kts 75°
2026-05-08 22:55 49.39993 5.06574 21097 ft 410 kts 75°
2026-05-08 22:55 49.40652 5.10837 21097 ft 410 kts 75°
2026-05-08 22:56 49.41311 5.15119 21100 ft 410 kts 76°
2026-05-08 22:56 49.41965 5.19374 21102 ft 409 kts 76°
2026-05-08 22:56 49.42610 5.23585 21102 ft 409 kts 76°
2026-05-08 22:56 49.43260 5.27833 21102 ft 409 kts 76°
2026-05-08 22:57 49.43907 5.32073 21105 ft 409 kts 76°
2026-05-08 22:57 49.44555 5.36337 21105 ft 409 kts 76°
2026-05-08 22:57 49.45201 5.40599 21103 ft 409 kts 76°
2026-05-08 22:57 49.45847 5.44870 21102 ft 409 kts 76°
2026-05-08 22:58 49.46491 5.49144 21099 ft 409 kts 76°
2026-05-08 22:58 49.47125 5.53366 21099 ft 409 kts 76°
2026-05-08 22:58 49.47764 5.57623 21102 ft 409 kts 76°
2026-05-08 22:58 49.48404 5.61903 21108 ft 409 kts 76°
2026-05-08 22:59 49.49042 5.66181 21108 ft 409 kts 76°
2026-05-08 22:59 49.49676 5.70443 21031 ft 409 kts 76°
2026-05-08 22:59 49.50299 5.74651 20791 ft 395 kts 76°
2026-05-08 22:59 49.50897 5.78698 20603 ft 381 kts 77°
2026-05-08 23:00 49.51468 5.82568 20274 ft 372 kts 77°
2026-05-08 23:00 49.52039 5.86449 19731 ft 371 kts 77°
2026-05-08 23:00 49.52608 5.90327 19192 ft 370 kts 77°
2026-05-08 23:00 49.53173 5.94182 18662 ft 368 kts 77°
2026-05-08 23:01 49.53734 5.98022 18103 ft 367 kts 77°
2026-05-08 23:01 49.54291 6.01848 17540 ft 365 kts 77°
2026-05-08 23:01 49.54844 6.05654 17018 ft 362 kts 78°
2026-05-08 23:01 49.55390 6.09421 16498 ft 359 kts 78°
2026-05-08 23:02 49.55926 6.13127 15968 ft 358 kts 78°
2026-05-08 23:02 49.56465 6.16863 15430 ft 357 kts 78°
2026-05-08 23:02 49.57002 6.20589 14901 ft 355 kts 78°
2026-05-08 23:02 49.57535 6.24300 14365 ft 355 kts 78°
2026-05-08 23:03 49.58066 6.28012 13851 ft 354 kts 78°
2026-05-08 23:03 49.58594 6.31710 13283 ft 352 kts 78°
2026-05-08 23:03 49.59117 6.35378 12760 ft 349 kts 78°
2026-05-08 23:03 49.59629 6.38979 12245 ft 346 kts 78°
2026-05-08 23:04 49.60142 6.42591 11725 ft 344 kts 78°
2026-05-08 23:04 49.60649 6.46173 11199 ft 341 kts 78°
2026-05-08 23:04 49.61153 6.49743 10662 ft 339 kts 78°
2026-05-08 23:04 49.61652 6.53286 10286 ft 332 kts 78°
2026-05-08 23:05 49.62130 6.56688 10140 ft 318 kts 78°
2026-05-08 23:05 49.62588 6.59951 10015 ft 306 kts 78°
2026-05-08 23:05 49.63030 6.63111 9795 ft 297 kts 78°
2026-05-08 23:05 49.63464 6.66218 9445 ft 294 kts 78°
2026-05-08 23:06 49.63887 6.69261 9092 ft 291 kts 78°
2026-05-08 23:06 49.64309 6.72303 8719 ft 289 kts 78°
2026-05-08 23:06 49.64729 6.75327 8345 ft 287 kts 78°
2026-05-08 23:06 49.65141 6.78301 7824 ft 279 kts 78°
2026-05-08 23:07 49.65534 6.81141 7391 ft 263 kts 78°
2026-05-08 23:07 49.65912 6.83886 7039 ft 260 kts 78°
2026-05-08 23:07 49.66287 6.86613 6697 ft 258 kts 78°
2026-05-08 23:07 49.66657 6.89307 6344 ft 256 kts 78°
2026-05-08 23:08 49.67022 6.91965 6002 ft 256 kts 78°
2026-05-08 23:08 49.67391 6.94659 5655 ft 255 kts 78°
2026-05-08 23:08 49.67763 6.97315 5330 ft 253 kts 76°
2026-05-08 23:08 49.68426 6.99796 5146 ft 252 kts 57°
2026-05-08 23:09 49.69655 7.01687 5099 ft 244 kts 36°
2026-05-08 23:09 49.71052 7.03095 4995 ft 235 kts 32°
2026-05-08 23:09 49.72415 7.04370 4960 ft 223 kts 33°
2026-05-08 23:09 49.73699 7.05612 4964 ft 210 kts 34°
2026-05-08 23:10 49.74899 7.06783 4965 ft 199 kts 33°
2026-05-08 23:10 49.76031 7.07887 4962 ft 186 kts 33°
2026-05-08 23:10 49.77078 7.08908 4964 ft 175 kts 34°
2026-05-08 23:10 49.78080 7.09888 4962 ft 164 kts 34°
2026-05-08 23:11 49.79032 7.10821 4965 ft 161 kts 34°
2026-05-08 23:11 49.79979 7.11752 4822 ft 161 kts 33°
2026-05-08 23:11 49.80933 7.12689 4618 ft 161 kts 34°
2026-05-08 23:11 49.81875 7.13611 4381 ft 159 kts 34°
2026-05-08 23:12 49.82806 7.14526 4141 ft 158 kts 34°
2026-05-08 23:12 49.83722 7.15425 3916 ft 153 kts 35°
2026-05-08 23:12 49.84587 7.16273 3717 ft 144 kts 36°
2026-05-08 23:12 49.85411 7.17083 3523 ft 136 kts 36°
2026-05-08 23:13 49.86192 7.17851 3353 ft 132 kts 36°
2026-05-08 23:13 49.86965 7.18611 3194 ft 129 kts 37°
2026-05-08 23:13 49.87708 7.19342 2998 ft 124 kts 37°
2026-05-08 23:13 49.88436 7.20059 2858 ft 125 kts 38°
2026-05-08 23:14 49.89159 7.20783 2653 ft 122 kts 39°
2026-05-08 23:14 49.89882 7.21499 2467 ft 123 kts 38°
2026-05-08 23:14 49.90548 7.22147 2357 ft 123 kts 36°
2026-05-08 23:14 49.91282 7.22839 2175 ft 123 kts 35°
2026-05-08 23:15 49.91982 7.23550 2012 ft 122 kts 35°
2026-05-08 23:15 49.92697 7.24260 1840 ft 122 kts 33°
2026-05-08 23:15 49.93416 7.24953 1691 ft 122 kts 34°
2026-05-08 23:15 49.94088 7.25615 1635 ft 99 kts 33°
2026-05-08 23:16 49.94516 7.26041 1631 ft 47 kts 32°
2026-05-08 23:16 49.94750 7.26271 1628 ft 39 kts 32°
2026-05-08 23:16 49.94954 7.26476 1626 ft 30 kts 32°
2026-05-08 23:16 49.95090 7.26610 1624 ft 13 kts 32°
2026-05-08 23:17 49.95105 7.26704 1624 ft 9 kts 133°
2026-05-08 23:17 49.95019 7.26729 1620 ft 16 kts 176°
2026-05-08 23:17 49.94935 7.26787 1628 ft 12 kts 124°
2026-05-08 23:17 49.94923 7.26918 1619 ft 14 kts 56°
2026-05-08 23:18 49.95016 7.27011 1624 ft 18 kts 32°
2026-05-08 23:18 49.95125 7.27122 1618 ft 17 kts 33°
2026-05-08 23:18 49.95176 7.27172 1621 ft 17 kts 32°
2026-05-08 23:18 49.95251 7.27254 1619 ft 8 kts 53°
2026-05-08 23:19 49.95242 7.27296 1618 ft 7 kts 122°
2026-05-08 23:19 49.95211 7.27366 1613 ft 3 kts 123°
2026-05-08 23:19 49.95209 7.27372 1610 ft 0 kts 123°